Home   Weather   Montreux   Past weeks
Flag for Switzerland

Past Weather in Montreux, Vaud, Switzerland — Yesterday and Last 2 Weeks

Now
52 °F

Cool.


Feels Like: 52 °F
Forecast: 58 / 44 °F
Wind: 1 mph from Southwest

Location: Aigle

Current Time: May 21, 2019 at 4:46:34 am

Latest Report: May 21, 2019 at 3:00 am


Visibility: N/A

Pressure: 29.93 "Hg

Humidity: 99%

Dew Point: 52 °F

Location of MontreuxLocation

Past Weather in Montreux — Graph

°F

Montreux Temperature Yesterday

Maximum temperature yesterday: 56 °F (at 3:00 pm)
Minimum temperature yesterday: 51 °F (at 7:00 am)
Average temperature yesterday: 53 °F

High & Low Weather Summary for the Past Weeks

 TemperatureHumidityPressure
High64 °F (May 10, 6:00 pm)99% (May 20, 1:00 am)30.34 "Hg (May 20, 1:00 am)
Low31 °F (May 6, 6:00 am)32% (May 12, 3:00 pm)29.64 "Hg (May 19, 2:00 pm)
Average51 °F72%29.95 "Hg
* Reported May 6 3:00 am — May 21 3:00 am, Montreux. Weather by CustomWeather, © 2019

Note: Actual official high and low records may vary slightly from our data, if they occured in-between our weather recording intervals... More about our weather records

Advertising

Montreux Weather History for the Previous 24 Hours

Scroll right to see more
 ConditionsComfort  
Time TempWeatherWind HumidityBarometerVisibility
3:00 am
Tue, May 21
52 °FCool.1 mph99%29.93 "HgN/A
2:00 am52 °FCool.No wind97%29.92 "HgN/A
1:00 am52 °FCool.1 mph99%29.93 "HgN/A
12:00 am52 °FCool.No wind98%29.92 "HgN/A
11:00 pm
Mon, May 20
52 °FCool.1 mph97%29.91 "HgN/A
10:00 pm52 °FCool.2 mph96%29.90 "HgN/A
9:00 pm53 °FCool.2 mph95%29.88 "HgN/A
8:00 pm53 °FRain. Overcast.2 mph99%29.87 "Hg5 mi
7:00 pm54 °FCool.2 mph96%29.85 "HgN/A
6:00 pm55 °FCool.1 mph90%29.84 "HgN/A
5:00 pm55 °FRain. Overcast.1 mph86%29.84 "Hg6 mi
4:00 pm55 °FCool.5 mph86%29.83 "HgN/A
3:00 pm56 °FCool.5 mph88%29.82 "HgN/A
2:00 pm55 °FRain. Overcast.3 mph91%29.81 "Hg5 mi
1:00 pm55 °FCool.2 mph88%29.80 "HgN/A
12:00 pm54 °FCool.1 mph92%29.79 "HgN/A
11:00 am53 °FRain. Low clouds.2 mph95%29.79 "Hg2 mi
10:00 am53 °FCool.2 mph96%29.78 "HgN/A
9:00 am52 °FCool.1 mph97%29.76 "HgN/A
8:00 am52 °FRain. Low clouds.1 mph97%29.75 "Hg2 mi
7:00 am51 °FCool.3 mph97%29.73 "HgN/A
6:00 am52 °FCool.1 mph99%29.72 "HgN/A
5:00 am52 °FRain. Overcast.No wind98%29.71 "Hg2 mi
4:00 am52 °FCool.1 mph99%29.71 "HgN/A
Weather by CustomWeather, © 2019

See weather overview